Location: La Coruña
(43.3623°N, 8.4115°W)
Time: 16:37:55
(UTC+01:00)

STARLINK-1091 - Pass Details

Date: 17 January 2020
Orbit: 349 x 350 km, 53.0° (Epoch: 18 February)

Event Time Altitude Azimuth Distance (km) Brightness Sun altitude
Rises 19:51:07 0° 240° (WSW) 2,152 8.2 -15.4°
Reaches altitude 10° 19:53:07 10° 243° (WSW) 1,313 6.8 -15.7°
Maximum altitude 19:56:02 65° 326° (NNW) 392 2.9 -16.2°
Enters shadow 19:56:46 43° 30° (NNE) 505 3.1 -16.4°
